IBE210K KJFK-LPPT

Flight info

Callsign IBE210K
Flight time N/A
Altitude 39000
Route SHIPP Y487 ISLES DCT JENYY DCT JOBOC/M081F390 DCT 42N050W 42N040W 4030N03000W 3930N02000W DCT GUNTI/N0475F390 DCT LAZET
Aircraft A333/H-SDE3GHIJ2J3J5M1RVWXY/LB2D1

Departure

Time 2026-05-09 15:31
Airport John F. Kennedy International Airport (KJFK)

Arrival

Time N/A
Airport Lisbon Humberto Delgado Airport (LPPT)
Time Latitude Longitude Altitude Speed Heading
2026-05-09 15:20 40.64435 -73.77975 27 ft 0 kts 231°
2026-05-09 15:22 40.64433 -73.77977 30 ft 0 kts 231°
2026-05-09 15:23 40.64433 -73.77978 24 ft 0 kts 231°
2026-05-09 15:24 40.64435 -73.77974 30 ft 3 kts 231°
2026-05-09 15:24 40.64448 -73.77953 30 ft 3 kts 231°
2026-05-09 15:24 40.64461 -73.77932 30 ft 3 kts 231°
2026-05-09 15:24 40.64472 -73.77913 30 ft 0 kts 231°
2026-05-09 15:25 40.64470 -73.77914 30 ft 1 kts 217°
2026-05-09 15:25 40.64464 -73.77913 27 ft 1 kts 181°
2026-05-09 15:25 40.64459 -73.77906 30 ft 0 kts 143°
2026-05-09 15:26 40.64458 -73.77902 30 ft 0 kts 125°
2026-05-09 15:26 40.64457 -73.77899 30 ft 6 kts 125°
2026-05-09 15:27 40.64376 -73.77733 26 ft 30 kts 132°
2026-05-09 15:27 40.64211 -73.77586 27 ft 27 kts 151°
2026-05-09 15:27 40.64070 -73.77433 29 ft 26 kts 127°
2026-05-09 15:27 40.64040 -73.77315 27 ft 11 kts 71°
2026-05-09 15:28 40.64084 -73.77260 29 ft 12 kts 30°
2026-05-09 15:28 40.64211 -73.77162 27 ft 27 kts 31°
2026-05-09 15:28 40.64376 -73.77038 27 ft 27 kts 26°
2026-05-09 15:28 40.64550 -73.76950 24 ft 26 kts 27°
2026-05-09 15:29 40.64701 -73.76837 26 ft 25 kts 31°
2026-05-09 15:29 40.64850 -73.76719 28 ft 25 kts 31°
2026-05-09 15:29 40.65002 -73.76599 28 ft 26 kts 29°
2026-05-09 15:29 40.65090 -73.76492 29 ft 9 kts 83°
2026-05-09 15:30 40.65047 -73.76382 26 ft 14 kts 140°
2026-05-09 15:30 40.64991 -73.76387 26 ft 17 kts 206°
2026-05-09 15:30 40.64635 -73.76657 27 ft 101 kts 211°
2026-05-09 15:30 40.63818 -73.77307 139 ft 164 kts 210°
2026-05-09 15:31 40.62801 -73.78140 589 ft 178 kts 209°
2026-05-09 15:31 40.61687 -73.79013 1183 ft 196 kts 210°
2026-05-09 15:31 40.60435 -73.79929 1986 ft 211 kts 210°
2026-05-09 15:31 40.59151 -73.80650 2957 ft 194 kts 194°
2026-05-09 15:32 40.57884 -73.80398 3947 ft 183 kts 162°
2026-05-09 15:32 40.56973 -73.79201 4569 ft 201 kts 125°
2026-05-09 15:32 40.56663 -73.77288 5121 ft 231 kts 95°
2026-05-09 15:32 40.56789 -73.75148 5699 ft 237 kts 89°
2026-05-09 15:33 40.56859 -73.72971 6161 ft 237 kts 107°
2026-05-09 15:33 40.56317 -73.71011 6752 ft 224 kts 125°
2026-05-09 15:33 40.55555 -73.69228 7296 ft 224 kts 128°
2026-05-09 15:33 40.54754 -73.67466 7945 ft 226 kts 129°
2026-05-09 15:34 40.53926 -73.65659 8839 ft 235 kts 130°
2026-05-09 15:34 40.53078 -73.63795 9723 ft 238 kts 129°
2026-05-09 15:34 40.52231 -73.61918 10598 ft 239 kts 129°
2026-05-09 15:34 40.51387 -73.60030 11434 ft 241 kts 129°
2026-05-09 15:35 40.50539 -73.58112 12206 ft 244 kts 129°
2026-05-09 15:35 40.49695 -73.56189 12979 ft 248 kts 129°
2026-05-09 15:35 40.48837 -73.54215 13773 ft 249 kts 129°
2026-05-09 15:35 40.47971 -73.52206 14497 ft 250 kts 129°
2026-05-09 15:36 40.47120 -73.50224 15236 ft 249 kts 129°
2026-05-09 15:36 40.46286 -73.48277 15958 ft 246 kts 129°
2026-05-09 15:36 40.45458 -73.46333 16704 ft 241 kts 129°
2026-05-09 15:36 40.44656 -73.44430 17470 ft 234 kts 129°
2026-05-09 15:37 40.43899 -73.42601 18231 ft 222 kts 129°
2026-05-09 15:37 40.43208 -73.40873 18878 ft 205 kts 129°
2026-05-09 15:37 40.42780 -73.39774 19162 ft 204 kts 129°
2026-05-09 15:37 40.42102 -73.38068 19310 ft 219 kts 130°
2026-05-09 15:38 40.41368 -73.36293 19661 ft 219 kts 130°
2026-05-09 15:38 40.40660 -73.34588 20238 ft 207 kts 131°
2026-05-09 15:38 40.39948 -73.32923 20474 ft 215 kts 133°
2026-05-09 15:38 40.39150 -73.31195 20643 ft 225 kts 134°
2026-05-09 15:39 40.38318 -73.29497 21157 ft 215 kts 136°
2026-05-09 15:39 40.37454 -73.27954 21513 ft 208 kts 149°
2026-05-09 15:39 40.36341 -73.26698 21647 ft 213 kts 158°
2026-05-09 15:39 40.35161 -73.25595 22182 ft 201 kts 160°
2026-05-09 15:40 40.34035 -73.24580 22619 ft 199 kts 162°
2026-05-09 15:40 40.32826 -73.23560 22701 ft 212 kts 161°
2026-05-09 15:40 40.31612 -73.22375 23054 ft 222 kts 153°
2026-05-09 15:40 40.30477 -73.21004 23449 ft 228 kts 146°
2026-05-09 15:41 40.29463 -73.19323 23675 ft 250 kts 127°
2026-05-09 15:41 40.28702 -73.17249 24092 ft 249 kts 121°
2026-05-09 15:41 40.28052 -73.15185 24555 ft 240 kts 125°
2026-05-09 15:41 40.27376 -73.13187 24883 ft 241 kts 122°
2026-05-09 15:42 40.26714 -73.11121 24808 ft 250 kts 123°
2026-05-09 15:42 40.26022 -73.09155 25446 ft 226 kts 127°
2026-05-09 15:42 40.25327 -73.07428 25977 ft 203 kts 134°
2026-05-09 15:42 40.24629 -73.05929 26288 ft 188 kts 131°
2026-05-09 15:43 40.24049 -73.04356 26211 ft 198 kts 131°